Flag for Poland Weather past 2 weeks in Gdynia, Poland

Now
46 °F

Clear.


Feels Like: 44 °F
Forecast: 48 / 54 °F
Wind: 6 mph from West

Location: Gdansk-Rebiechowo

Current Time: Oct 21, 2014 at 6:41:24 AM

Latest Report: Oct 21, 2014 at 6:00 AM


Visibility: 10 mi

Pressure: 29.68 "Hg

Humidity: 100%

Dew point: 46 °F

Location of GdyniaLocation

Historic Weather in Gdynia — Graph

°F

Gdynia temperature yesterday

Maximum temperature yesterday: 61 °F (at 12:00 AM)
Minimum temperature yesterday: 52 °F (at 9:00 PM)
Average temperature yesterday: 56 °F

Past Weeks' High & Low Weather Summary

 TemperatureHumidityPressure
High66 °F (Oct 9, 1:00 PM)100% (Oct 6, 7:30 AM)30.30 "Hg (Oct 6, 7:30 AM)
Low36 °F (Oct 6, 7:30 AM)49% (Oct 8, 2:30 PM)29.65 "Hg (Oct 14, 7:00 AM)
Average54 °F88%29.90 "Hg
* Reported Oct 6 5:00 AM — Oct 21 5:00 AM, Gdynia, Weather by CustomWeather, © 2014

Note: Actual official high and low records may vary slightly from our data, if they occured in-between our weather recording intervals... More about our weather records

Advertising

Gdynia weather history for previous 24 hours

 ConditionsComfort  
Time TempWeatherWind HumidityBarometerVisibility
5:00 AM
Oct 21
48 °FClear.6 mph94%29.71 "Hg10 mi
4:30 AM48 °FClear.5 mph94%29.71 "Hg10 mi
4:00 AM48 °FClear.6 mph94%29.71 "Hg10 mi
3:30 AM50 °FClear.9 mph88%29.71 "Hg10 mi
3:00 AM50 °FPassing clouds.9 mph88%29.71 "HgN/A
2:30 AM52 °FPassing clouds.10 mph82%29.68 "HgN/A
2:00 AM52 °FClear.12 mph88%29.68 "Hg10 mi
1:30 AM52 °FPassing clouds.10 mph88%29.71 "HgN/A
1:00 AM52 °FClear.9 mph88%29.68 "Hg10 mi
12:30 AM54 °FClear.12 mph82%29.68 "Hg10 mi
12:00 AM54 °FPassing clouds.13 mph82%29.68 "HgN/A
11:30 PM
Oct 20
54 °FPassing clouds.13 mph82%29.71 "HgN/A
11:00 PM54 °FSprinkles. Passing clouds.10 mph82%29.71 "HgN/A
10:30 PM54 °FPassing clouds.14 mph82%29.71 "HgN/A
10:00 PM54 °FPassing clouds.13 mph82%29.71 "HgN/A
9:30 PM54 °FPassing clouds.12 mph82%29.68 "HgN/A
9:00 PM52 °FPassing clouds.10 mph88%29.68 "HgN/A
8:30 PM54 °FPassing clouds.13 mph82%29.68 "HgN/A
8:00 PM54 °FPassing clouds.14 mph82%29.68 "HgN/A
7:30 PM54 °FPassing clouds.13 mph82%29.68 "HgN/A
7:00 PM54 °FPassing clouds.14 mph82%29.68 "HgN/A
6:30 PM54 °FScattered clouds.13 mph82%29.68 "HgN/A
6:00 PM54 °FScattered clouds.15 mph82%29.68 "HgN/A
5:30 PM54 °FPassing clouds.13 mph82%29.68 "HgN/A
5:00 PM55 °FPassing clouds.16 mph77%29.68 "HgN/A
4:30 PM55 °FPassing clouds.16 mph82%29.68 "HgN/A
4:00 PM55 °FScattered clouds.14 mph82%29.68 "HgN/A
3:30 PM55 °FScattered clouds.15 mph82%29.68 "HgN/A
3:00 PM55 °FScattered clouds.14 mph82%29.65 "HgN/A
2:30 PM55 °FScattered clouds.15 mph82%29.65 "HgN/A
2:00 PM55 °FScattered clouds.16 mph82%29.65 "HgN/A
1:30 PM55 °FPassing clouds.14 mph94%29.65 "HgN/A
1:00 PM55 °FRain showers. Partly sunny.14 mph94%29.65 "Hg2 mi
12:30 PM55 °FSprinkles. Broken clouds.13 mph94%29.65 "HgN/A
12:00 PM55 °FRain showers. Broken clouds.12 mph94%29.65 "Hg4 mi
11:30 AM55 °FSprinkles. Partly sunny.13 mph94%29.65 "Hg5 mi
11:00 AM55 °FSprinkles. Partly sunny.10 mph94%29.65 "Hg4 mi
10:30 AM55 °FSprinkles. Partly sunny.9 mph94%29.65 "HgN/A
10:00 AM55 °FSprinkles. Broken clouds.13 mph94%29.65 "Hg4 mi
9:30 AM55 °FSprinkles. Broken clouds.10 mph94%29.68 "Hg5 mi
9:00 AM55 °FSprinkles. Broken clouds.9 mph94%29.68 "HgN/A
8:30 AM55 °FPartly sunny.8 mph94%29.68 "HgN/A
8:00 AM55 °FSprinkles. Passing clouds.10 mph88%29.68 "Hg3 mi
7:30 AM55 °FPassing clouds.12 mph88%29.68 "HgN/A
7:00 AM55 °FPassing clouds.10 mph88%29.68 "HgN/A
Weather by CustomWeather, © 2014

See weather overviewHow to use our weather pages